Time,TemperatureF,DewpointF,PressureIn,WindDirection,WindDirectionDegrees,WindSpeedMPH,WindSpeedGustMPH,Humidity,HourlyPrecipIn,Conditions,Clouds,dailyrainin,SoftwareType,DateUTC
2013-12-01 00:02:00,40.1,26.5,29.92,SSW,209,0.0,0.0,58,0.00,,OVC041,0.00,VWS V14.01,2013-12-01 05:02:00,
2013-12-01 00:07:00,40.3,26.3,29.92,SSW,199,0.0,0.0,57,0.00,,OVC041,0.00,VWS V14.01,2013-12-01 05:07:00,
2013-12-01 00:12:00,40.3,26.3,29.92,SSW,192,0.0,0.0,57,0.00,,OVC041,0.00,VWS V14.01,2013-12-01 05:12:00,
2013-12-01 00:17:00,40.5,26.5,29.92,SSW,192,0.0,0.0,57,0.00,,OVC041,0.00,VWS V14.01,2013-12-01 05:17:00,
2013-12-01 00:22:00,40.6,26.1,29.92,SSW,209,0.0,0.0,56,0.00,,OVC041,0.00,VWS V14.01,2013-12-01 05:22:00,
2013-12-01 00:27:00,40.8,25.9,29.92,SSW,209,0.0,0.0,55,0.00,,OVC041,0.00,VWS V14.01,2013-12-01 05:27:00,
2013-12-01 00:32:00,40.9,26.0,29.91,SSW,199,0.0,0.0,55,0.00,,OVC041,0.00,VWS V14.01,2013-12-01 05:32:00,
2013-12-01 00:37:00,41.1,25.7,29.91,SSW,203,0.0,0.0,54,0.00,,OVC041,0.00,VWS V14.01,2013-12-01 05:37:00,
2013-12-01 00:42:00,41.2,25.8,29.91,SSW,206,0.0,0.0,54,0.00,,OVC041,0.00,VWS V14.01,2013-12-01 05:42:00,
2013-12-01 00:47:00,41.2,25.8,29.90,SW,215,0.0,0.0,54,0.00,,OVC041,0.00,VWS V14.01,2013-12-01 05:47:00,
2013-12-01 00:57:00,41.1,25.7,29.90,South,188,0.0,0.0,54,0.00,,OVC041,0.00,VWS V14.01,2013-12-01 05:57:00,
2013-12-01 01:02:00,40.9,25.5,29.90,SSW,213,0.0,0.0,54,0.00,,CLR,0.00,VWS V14.01,2013-12-01 06:02:00,
2013-12-01 01:07:00,40.6,25.3,29.90,SSW,209,0.0,0.0,54,0.00,,CLR,0.00,VWS V14.01,2013-12-01 06:07:00,
2013-12-01 01:12:00,40.3,25.4,29.90,SSW,195,0.0,0.0,55,0.00,,CLR,0.00,VWS V14.01,2013-12-01 06:12:00,
2013-12-01 01:17:00,40.1,25.7,29.90,SSW,198,0.0,0.0,56,0.00,,CLR,0.00,VWS V14.01,2013-12-01 06:17:00,
2013-12-01 01:22:00,39.6,25.6,29.90,SSW,193,0.0,0.0,57,0.00,,CLR,0.00,VWS V14.01,2013-12-01 06:22:00,
2013-12-01 01:32:00,39.2,25.7,29.89,South,191,0.0,0.0,58,0.00,,CLR,0.00,VWS V14.01,2013-12-01 06:32:00,
2013-12-01 01:37:00,38.9,25.4,29.89,SSW,202,0.0,0.0,58,0.00,,CLR,0.00,VWS V14.01,2013-12-01 06:37:00,
2013-12-01 01:47:00,38.6,25.1,29.89,SSW,203,0.0,0.0,58,0.00,,CLR,0.00,VWS V14.01,2013-12-01 06:47:00,
2013-12-01 01:52:00,38.6,25.1,29.89,SSW,200,0.0,0.0,58,0.00,,CLR,0.00,VWS V14.01,2013-12-01 06:52:00,
2013-12-01 01:57:00,38.5,25.4,29.89,SSW,199,0.0,0.0,59,0.00,,CLR,0.00,VWS V14.01,2013-12-01 06:57:00,
2013-12-01 02:02:00,38.3,25.2,29.89,SSW,208,0.0,0.0,59,0.00,,CLR,0.00,VWS V14.01,2013-12-01 07:02:00,
2013-12-01 02:07:00,38.2,25.1,29.89,SSW,196,0.0,0.0,59,0.00,,CLR,0.00,VWS V14.01,2013-12-01 07:07:00,
2013-12-01 02:17:00,38.2,25.1,29.89,SSW,206,0.0,0.0,59,0.00,,CLR,0.00,VWS V14.01,2013-12-01 07:17:00,
2013-12-01 02:22:00,38.2,25.1,29.89,SSW,203,0.0,0.0,59,0.00,,CLR,0.00,VWS V14.01,2013-12-01 07:22:00,
2013-12-01 02:32:00,38.0,25.4,29.89,SSW,195,0.0,0.0,60,0.00,,CLR,0.00,VWS V14.01,2013-12-01 07:32:00,
2013-12-01 02:42:00,38.0,25.4,29.89,SSW,202,0.0,0.0,60,0.00,,CLR,0.00,VWS V14.01,2013-12-01 07:42:00,
2013-12-01 02:47:00,38.0,25.0,29.89,SSW,202,0.0,0.0,59,0.00,,CLR,0.00,VWS V14.01,2013-12-01 07:47:00,
2013-12-01 02:52:00,38.0,25.0,29.89,SSW,206,0.0,0.0,59,0.00,,CLR,0.00,VWS V14.01,2013-12-01 07:52:00,
2013-12-01 03:02:00,38.0,25.0,29.89,SSW,210,0.0,0.0,59,0.00,,CLR,0.00,VWS V14.01,2013-12-01 08:02:00,
2013-12-01 03:07:00,37.9,25.3,29.89,SSW,203,0.0,0.0,60,0.00,,CLR,0.00,VWS V14.01,2013-12-01 08:07:00,
2013-12-01 03:12:00,37.8,25.2,29.89,SSW,196,0.0,0.0,60,0.00,,CLR,0.00,VWS V14.01,2013-12-01 08:12:00,
2013-12-01 03:17:00,37.9,25.3,29.89,SSW,209,0.0,0.0,60,0.00,,CLR,0.00,VWS V14.01,2013-12-01 08:17:00,
2013-12-01 03:22:00,37.8,25.2,29.89,SSW,209,0.0,0.0,60,0.00,,CLR,0.00,VWS V14.01,2013-12-01 08:22:00,
2013-12-01 03:27:00,37.6,25.4,29.89,SSW,209,0.0,0.0,61,0.00,,CLR,0.00,VWS V14.01,2013-12-01 08:27:00,
2013-12-01 03:32:00,37.6,25.4,29.89,SSW,209,0.0,0.0,61,0.00,,CLR,0.00,VWS V14.01,2013-12-01 08:32:00,
2013-12-01 03:42:00,37.3,25.5,29.89,SW,217,0.0,0.0,62,0.00,,CLR,0.00,VWS V14.01,2013-12-01 08:42:00,
2013-12-01 03:47:00,37.2,25.4,29.88,SSW,205,0.0,0.0,62,0.00,,CLR,0.00,VWS V14.01,2013-12-01 08:47:00,
2013-12-01 03:52:00,37.2,25.4,29.88,SSW,203,0.0,0.0,62,0.00,,CLR,0.00,VWS V14.01,2013-12-01 08:52:00,
2013-12-01 03:57:00,37.0,25.6,29.88,SSW,199,0.0,0.0,63,0.00,,CLR,0.00,VWS V14.01,2013-12-01 08:57:00,
2013-12-01 04:07:00,37.2,25.8,29.87,SSW,212,0.0,0.0,63,0.00,,CLR,0.00,VWS V14.01,2013-12-01 09:07:00,
2013-12-01 04:12:00,37.2,25.8,29.87,SSW,212,0.0,0.0,63,0.00,,CLR,0.00,VWS V14.01,2013-12-01 09:12:00,
2013-12-01 04:22:00,37.2,25.8,29.87,SSW,212,0.0,0.0,63,0.00,,CLR,0.00,VWS V14.01,2013-12-01 09:22:00,
2013-12-01 04:27:00,36.9,25.9,29.87,South,188,0.0,0.0,64,0.00,,CLR,0.00,VWS V14.01,2013-12-01 09:27:00,
2013-12-01 04:32:00,36.9,25.9,29.87,South,191,0.0,0.0,64,0.00,,CLR,0.00,VWS V14.01,2013-12-01 09:32:00,
2013-12-01 04:37:00,36.9,25.9,29.87,South,191,0.0,0.0,64,0.00,,CLR,0.00,VWS V14.01,2013-12-01 09:37:00,
2013-12-01 04:47:00,36.8,26.1,29.87,South,191,0.0,0.0,65,0.00,,CLR,0.00,VWS V14.01,2013-12-01 09:47:00,
2013-12-01 04:52:00,36.5,25.9,29.87,South,191,0.0,0.0,65,0.00,,CLR,0.00,VWS V14.01,2013-12-01 09:52:00,
2013-12-01 05:02:00,36.5,25.9,29.87,SSW,202,0.0,0.0,65,0.00,,CLR,0.00,VWS V14.01,2013-12-01 10:02:00,
2013-12-01 05:12:00,36.2,26.0,29.87,SSW,202,0.0,0.0,66,0.00,,CLR,0.00,VWS V14.01,2013-12-01 10:12:00,
2013-12-01 05:17:00,36.0,25.8,29.88,SSW,202,0.0,0.0,66,0.00,,CLR,0.00,VWS V14.01,2013-12-01 10:17:00,
2013-12-01 05:22:00,36.0,25.8,29.88,SSW,202,0.0,0.0,66,0.00,,CLR,0.00,VWS V14.01,2013-12-01 10:22:00,
2013-12-01 05:27:00,35.8,25.9,29.88,SSW,202,0.0,0.0,67,0.00,,CLR,0.00,VWS V14.01,2013-12-01 10:27:00,
2013-12-01 05:37:00,35.3,25.8,29.88,SSW,202,0.0,0.0,68,0.00,,CLR,0.00,VWS V14.01,2013-12-01 10:37:00,
2013-12-01 05:42:00,35.2,25.7,29.88,SSW,202,0.0,0.0,68,0.00,,CLR,0.00,VWS V14.01,2013-12-01 10:42:00,
2013-12-01 05:47:00,35.0,25.9,29.88,SSW,202,0.0,0.0,69,0.00,,CLR,0.00,VWS V14.01,2013-12-01 10:47:00,
2013-12-01 05:53:00,34.7,25.6,29.88,SSW,202,0.0,0.0,69,0.00,,CLR,0.00,VWS V14.01,2013-12-01 10:53:00,
2013-12-01 06:02:00,34.1,25.4,29.88,SSW,202,0.0,0.0,70,0.00,,CLR,0.00,VWS V14.01,2013-12-01 11:02:00,
2013-12-01 06:07:00,34.1,25.7,29.88,SSW,202,0.0,0.0,71,0.00,,CLR,0.00,VWS V14.01,2013-12-01 11:07:00,
2013-12-01 06:12:00,33.7,25.3,29.88,SSW,202,0.0,0.0,71,0.00,,CLR,0.00,VWS V14.01,2013-12-01 11:12:00,
2013-12-01 06:17:00,33.5,25.5,29.89,SSW,202,0.0,0.0,72,0.00,,CLR,0.00,VWS V14.01,2013-12-01 11:17:00,
2013-12-01 06:22:00,33.5,25.5,29.89,SSW,202,0.0,0.0,72,0.00,,CLR,0.00,VWS V14.01,2013-12-01 11:22:00,
2013-12-01 06:32:00,33.7,25.6,29.88,SSW,202,0.0,0.0,72,0.00,,CLR,0.00,VWS V14.01,2013-12-01 11:32:00,
2013-12-01 06:37:00,33.8,25.7,29.88,SSW,202,0.0,0.0,72,0.00,,CLR,0.00,VWS V14.01,2013-12-01 11:37:00,
2013-12-01 06:47:00,33.8,25.7,29.88,SSW,202,0.0,0.0,72,0.00,,CLR,0.00,VWS V14.01,2013-12-01 11:47:00,
2013-12-01 06:57:00,33.7,25.6,29.88,SSW,202,0.0,0.0,72,0.00,,CLR,0.00,VWS V14.01,2013-12-01 11:57:00,
2013-12-01 07:02:00,33.7,25.6,29.88,SSW,202,0.0,0.0,72,0.00,,CLR,0.00,VWS V14.01,2013-12-01 12:02:00,
2013-12-01 07:07:00,33.7,25.6,29.88,SSW,202,0.0,0.0,72,0.00,,CLR,0.00,VWS V14.01,2013-12-01 12:07:00,
2013-12-01 07:17:00,33.4,25.4,29.88,SSW,202,0.0,0.0,72,0.00,,CLR,0.00,VWS V14.01,2013-12-01 12:17:00,
2013-12-01 07:22:00,33.4,25.7,29.88,SSW,202,0.0,0.0,73,0.00,,CLR,0.00,VWS V14.01,2013-12-01 12:22:00,
2013-12-01 07:27:00,33.2,25.5,29.88,SSW,202,0.0,0.0,73,0.00,,CLR,0.00,VWS V14.01,2013-12-01 12:27:00,
2013-12-01 07:32:00,33.2,25.8,29.88,SSW,202,0.0,0.0,74,0.00,,CLR,0.00,VWS V14.01,2013-12-01 12:32:00,
2013-12-01 07:37:00,33.4,25.7,29.88,SSW,202,0.0,0.0,73,0.00,,CLR,0.00,VWS V14.01,2013-12-01 12:37:00,
2013-12-01 07:42:00,33.4,25.7,29.88,SSW,202,0.0,0.0,73,0.00,,CLR,0.00,VWS V14.01,2013-12-01 12:42:00,
2013-12-01 07:47:00,33.4,26.0,29.89,SSW,202,0.0,0.0,74,0.00,,CLR,0.00,VWS V14.01,2013-12-01 12:47:00,
2013-12-01 07:52:00,33.4,26.0,29.89,SSW,202,0.0,0.0,74,0.00,,CLR,0.00,VWS V14.01,2013-12-01 12:52:00,
2013-12-01 07:57:00,33.5,26.1,29.89,SSW,202,0.0,0.0,74,0.00,,CLR,0.00,VWS V14.01,2013-12-01 12:57:00,
2013-12-01 08:02:00,33.5,26.1,29.89,SSW,202,0.0,0.0,74,0.00,,BKN100,0.00,VWS V14.01,2013-12-01 13:02:00,
2013-12-01 08:07:00,33.7,26.3,29.89,SSW,202,0.0,0.0,74,0.00,,BKN100,0.00,VWS V14.01,2013-12-01 13:07:00,
2013-12-01 08:12:00,33.7,26.3,29.89,SSW,202,0.0,0.0,74,0.00,,BKN100,0.00,VWS V14.01,2013-12-01 13:12:00,
2013-12-01 08:22:00,34.0,26.6,29.89,SSW,202,0.0,0.0,74,0.00,,BKN100,0.00,VWS V14.01,2013-12-01 13:22:00,
2013-12-01 08:27:00,34.0,26.6,29.89,SSW,202,0.0,0.0,74,0.00,,BKN100,0.00,VWS V14.01,2013-12-01 13:27:00,
2013-12-01 08:32:00,34.0,26.9,29.89,SSW,202,0.0,0.0,75,0.00,,BKN100,0.00,VWS V14.01,2013-12-01 13:32:00,
2013-12-01 08:37:00,34.0,26.9,29.89,SSW,202,0.0,0.0,75,0.00,,BKN100,0.00,VWS V14.01,2013-12-01 13:37:00,
2013-12-01 08:42:00,34.1,27.0,29.89,SSW,202,0.0,0.0,75,0.00,,BKN100,0.00,VWS V14.01,2013-12-01 13:42:00,
2013-12-01 08:52:00,34.3,27.2,29.89,SSW,202,0.0,0.0,75,0.00,,BKN100,0.00,VWS V14.01,2013-12-01 13:52:00,
2013-12-01 08:57:00,34.4,27.3,29.89,SSW,202,0.0,0.0,75,0.00,,BKN100,0.00,VWS V14.01,2013-12-01 13:57:00,
2013-12-01 09:02:00,34.4,27.3,29.90,WSW,247,0.0,0.0,75,0.00,,BKN100,0.00,VWS V14.01,2013-12-01 14:02:00,
2013-12-01 09:07:00,34.6,27.5,29.90,WSW,250,0.0,0.0,75,0.00,,BKN100,0.00,VWS V14.01,2013-12-01 14:07:00,
2013-12-01 09:17:00,34.3,27.5,29.90,WSW,257,0.0,0.0,76,0.00,,BKN100,0.00,VWS V14.01,2013-12-01 14:17:00,
2013-12-01 09:22:00,34.3,27.5,29.90,WSW,257,0.0,0.0,76,0.00,,BKN100,0.00,VWS V14.01,2013-12-01 14:22:00,
2013-12-01 09:27:00,34.3,27.5,29.90,WSW,257,0.0,0.0,76,0.00,,BKN100,0.00,VWS V14.01,2013-12-01 14:27:00,
2013-12-01 09:32:00,34.3,27.9,29.90,WSW,257,0.0,0.0,77,0.00,,BKN100,0.00,VWS V14.01,2013-12-01 14:32:00,
2013-12-01 09:42:00,34.4,28.0,29.90,WSW,248,0.0,0.0,77,0.00,,BKN100,0.00,VWS V14.01,2013-12-01 14:42:00,
2013-12-01 09:47:00,34.4,28.0,29.90,SW,223,0.0,0.0,77,0.00,,BKN100,0.00,VWS V14.01,2013-12-01 14:47:00,
2013-12-01 09:52:00,34.6,28.1,29.90,SW,223,0.0,0.0,77,0.00,,BKN100,0.00,VWS V14.01,2013-12-01 14:52:00,
2013-12-01 09:57:00,34.6,28.1,29.90,SW,227,0.0,0.0,77,0.00,,BKN100,0.00,VWS V14.01,2013-12-01 14:57:00,
2013-12-01 10:02:00,34.4,28.3,29.91,SW,229,0.0,0.0,78,0.00,,CLR,0.00,VWS V14.01,2013-12-01 15:02:00,
2013-12-01 10:07:00,34.4,28.3,29.91,SW,229,0.0,0.0,78,0.00,,CLR,0.00,VWS V14.01,2013-12-01 15:07:00,
2013-12-01 10:12:00,34.4,28.3,29.91,SW,230,0.0,0.0,78,0.00,,CLR,0.00,VWS V14.01,2013-12-01 15:12:00,
2013-12-01 10:17:00,34.6,28.5,29.91,SW,230,0.0,0.0,78,0.00,,CLR,0.00,VWS V14.01,2013-12-01 15:17:00,
2013-12-01 10:22:00,34.7,28.5,29.91,SW,230,0.0,0.0,78,0.00,,CLR,0.00,VWS V14.01,2013-12-01 15:22:00,
2013-12-01 10:32:00,34.7,28.5,29.91,SW,230,0.0,0.0,78,0.00,,CLR,0.00,VWS V14.01,2013-12-01 15:32:00,
2013-12-01 10:42:00,35.0,28.9,29.91,SW,230,0.0,0.0,78,0.00,,CLR,0.00,VWS V14.01,2013-12-01 15:42:00,
2013-12-01 10:47:00,35.3,29.1,29.92,SW,230,0.0,0.0,78,0.00,,CLR,0.00,VWS V14.01,2013-12-01 15:47:00,
2013-12-01 10:53:00,35.5,29.0,29.92,SW,230,0.0,0.0,77,0.00,,CLR,0.00,VWS V14.01,2013-12-01 15:53:00,
2013-12-01 11:02:00,35.6,29.1,29.91,SW,230,0.0,0.0,77,0.00,,CLR,0.00,VWS V14.01,2013-12-01 16:02:00,
2013-12-01 11:07:00,35.9,29.4,29.91,SW,230,0.0,0.0,77,0.00,,CLR,0.00,VWS V14.01,2013-12-01 16:07:00,
2013-12-01 11:12:00,36.2,29.4,29.91,SW,230,0.0,0.0,76,0.00,,CLR,0.00,VWS V14.01,2013-12-01 16:12:00,
2013-12-01 11:22:00,36.8,30.0,29.91,SW,230,0.0,0.0,76,0.00,,CLR,0.00,VWS V14.01,2013-12-01 16:22:00,
2013-12-01 11:27:00,36.8,29.6,29.91,SW,230,0.0,0.0,75,0.00,,CLR,0.00,VWS V14.01,2013-12-01 16:27:00,
2013-12-01 11:32:00,36.9,30.0,29.90,SW,230,0.0,0.0,76,0.00,,CLR,0.00,VWS V14.01,2013-12-01 16:32:00,
2013-12-01 11:42:00,37.9,30.7,29.90,SW,230,0.0,0.0,75,0.00,,CLR,0.00,VWS V14.01,2013-12-01 16:42:00,
2013-12-01 11:47:00,38.3,30.8,29.90,SW,230,0.0,0.0,74,0.00,,CLR,0.00,VWS V14.01,2013-12-01 16:47:00,
2013-12-01 11:52:00,38.9,31.0,29.90,SW,230,0.0,0.0,73,0.00,,CLR,0.00,VWS V14.01,2013-12-01 16:52:00,
2013-12-01 11:57:00,39.3,31.4,29.90,SW,230,0.0,0.0,73,0.00,,CLR,0.00,VWS V14.01,2013-12-01 16:57:00,
2013-12-01 12:07:00,39.3,31.4,29.89,SW,230,0.0,0.0,73,0.00,,CLR,0.00,VWS V14.01,2013-12-01 17:07:00,
2013-12-01 12:12:00,39.8,31.5,29.89,SW,230,0.0,0.0,72,0.00,,CLR,0.00,VWS V14.01,2013-12-01 17:12:00,
2013-12-01 12:17:00,40.1,31.8,29.88,SW,230,0.0,0.0,72,0.00,,CLR,0.00,VWS V14.01,2013-12-01 17:17:00,
2013-12-01 12:22:00,40.3,32.0,29.88,SW,230,0.0,0.0,72,0.00,,CLR,0.00,VWS V14.01,2013-12-01 17:22:00,
2013-12-01 12:27:00,40.9,32.2,29.88,SW,230,0.0,0.0,71,0.00,,CLR,0.00,VWS V14.01,2013-12-01 17:27:00,
2013-12-01 12:32:00,40.8,32.5,29.87,SW,230,0.0,0.0,72,0.00,,CLR,0.00,VWS V14.01,2013-12-01 17:32:00,
2013-12-01 12:37:00,40.9,32.6,29.87,SW,230,0.0,0.0,72,0.00,,CLR,0.00,VWS V14.01,2013-12-01 17:37:00,
2013-12-01 12:42:00,41.3,33.0,29.87,SW,230,0.0,0.0,72,0.00,,CLR,0.00,VWS V14.01,2013-12-01 17:42:00,
2013-12-01 12:47:00,42.1,33.4,29.86,SW,230,0.0,0.0,71,0.00,,CLR,0.00,VWS V14.01,2013-12-01 17:47:00,
2013-12-01 12:52:00,42.6,33.5,29.86,SW,230,0.0,0.0,70,0.00,,CLR,0.00,VWS V14.01,2013-12-01 17:52:00,
2013-12-01 12:57:00,43.5,33.7,29.86,SW,230,0.0,0.0,68,0.00,,CLR,0.00,VWS V14.01,2013-12-01 17:57:00,
2013-12-01 13:07:00,43.3,33.8,29.86,NE,49,0.0,0.0,69,0.00,,,0.00,VWS V14.01,2013-12-01 18:07:00,
2013-12-01 13:12:00,42.6,33.5,29.86,NE,48,0.0,0.0,70,0.00,,,0.00,VWS V14.01,2013-12-01 18:12:00,
2013-12-01 13:18:00,42.9,33.8,29.85,NE,51,0.0,0.0,70,0.00,,,0.00,VWS V14.01,2013-12-01 18:18:00,
2013-12-01 13:27:00,43.2,33.4,29.85,NNE,27,0.0,0.0,68,0.00,,,0.00,VWS V14.01,2013-12-01 18:27:00,
2013-12-01 13:32:00,43.1,33.3,29.85,North,350,0.0,0.0,68,0.00,,,0.00,VWS V14.01,2013-12-01 18:32:00,
2013-12-01 13:38:00,43.2,33.4,29.85,NNE,25,0.0,0.0,68,0.00,,,0.00,VWS V14.01,2013-12-01 18:38:00,
2013-12-01 13:42:00,43.2,33.7,29.85,NNE,14,0.0,0.0,69,0.00,,,0.00,VWS V14.01,2013-12-01 18:42:00,
2013-12-01 13:47:00,43.3,33.5,29.84,North,1,0.0,0.0,68,0.00,,,0.00,VWS V14.01,2013-12-01 18:47:00,
2013-12-01 13:57:00,43.9,33.7,29.84,North,1,0.0,0.0,67,0.00,,,0.00,VWS V14.01,2013-12-01 18:57:00,
2013-12-01 14:02:00,44.1,33.1,29.84,NNW,344,0.0,0.0,65,0.00,,BKN019,0.00,VWS V14.01,2013-12-01 19:02:00,
2013-12-01 14:12:00,44.5,33.5,29.84,NW,320,0.0,0.0,65,0.00,,BKN019,0.00,VWS V14.01,2013-12-01 19:12:00,
2013-12-01 14:17:00,44.6,33.6,29.83,North,356,0.0,0.0,65,0.00,,BKN019,0.00,VWS V14.01,2013-12-01 19:17:00,
2013-12-01 14:22:00,44.6,33.2,29.83,North,359,0.0,0.0,64,0.00,,BKN019,0.00,VWS V14.01,2013-12-01 19:22:00,
2013-12-01 14:32:00,44.6,32.8,29.83,NNW,347,0.0,0.0,63,0.00,,BKN019,0.00,VWS V14.01,2013-12-01 19:32:00,
2013-12-01 14:37:00,44.8,33.4,29.83,NNW,329,0.0,0.0,64,0.00,,BKN019,0.00,VWS V14.01,2013-12-01 19:37:00,
2013-12-01 14:47:00,44.8,33.8,29.83,North,8,0.0,0.0,65,0.00,,BKN019,0.00,VWS V14.01,2013-12-01 19:47:00,
2013-12-01 14:52:00,44.5,33.9,29.83,North,4,0.0,0.0,66,0.00,,BKN019,0.00,VWS V14.01,2013-12-01 19:52:00,
2013-12-01 14:57:00,44.2,33.6,29.83,NNE,21,0.0,0.0,66,0.00,,BKN019,0.00,VWS V14.01,2013-12-01 19:57:00,
2013-12-01 15:02:00,44.1,33.9,29.83,North,0,0.0,0.0,67,0.00,,OVC025,0.00,VWS V14.01,2013-12-01 20:02:00,
2013-12-01 15:07:00,43.5,32.9,29.83,NNE,18,0.0,0.0,66,0.00,,OVC025,0.00,VWS V14.01,2013-12-01 20:07:00,
2013-12-01 15:12:00,43.2,32.6,29.83,NNE,23,0.0,0.0,66,0.00,,OVC025,0.00,VWS V14.01,2013-12-01 20:12:00,
2013-12-01 15:22:00,43.2,33.0,29.83,North,7,0.0,0.0,67,0.00,,OVC025,0.00,VWS V14.01,2013-12-01 20:22:00,
2013-12-01 15:27:00,43.5,33.3,29.83,North,359,0.0,0.0,67,0.00,,OVC025,0.00,VWS V14.01,2013-12-01 20:27:00,
2013-12-01 15:32:00,43.5,33.3,29.82,NNE,25,0.0,0.0,67,0.00,,OVC025,0.00,VWS V14.01,2013-12-01 20:32:00,
2013-12-01 15:37:00,43.1,32.9,29.82,North,3,0.0,0.0,67,0.00,,OVC025,0.00,VWS V14.01,2013-12-01 20:37:00,
2013-12-01 15:42:00,42.8,33.0,29.82,North,1,0.0,0.0,68,0.00,,OVC025,0.00,VWS V14.01,2013-12-01 20:42:00,
2013-12-01 15:47:00,42.5,32.7,29.83,North,0,0.0,0.0,68,0.00,,OVC025,0.00,VWS V14.01,2013-12-01 20:47:00,
2013-12-01 15:53:00,42.3,32.5,29.83,North,0,0.0,0.0,68,0.00,,OVC025,0.00,VWS V14.01,2013-12-01 20:53:00,
2013-12-01 15:58:00,42.5,32.7,29.83,North,0,0.0,0.0,68,0.00,,OVC025,0.00,VWS V14.01,2013-12-01 20:58:00,
2013-12-01 16:07:00,42.2,32.8,29.83,North,353,0.0,0.0,69,0.00,,OVC025,0.00,VWS V14.01,2013-12-01 21:07:00,
2013-12-01 16:12:00,41.9,32.8,29.83,NNW,346,0.0,0.0,70,0.00,,OVC025,0.00,VWS V14.01,2013-12-01 21:12:00,
2013-12-01 16:17:00,41.5,32.8,29.83,NNW,339,0.0,0.0,71,0.00,,OVC025,0.00,VWS V14.01,2013-12-01 21:17:00,
2013-12-01 16:22:00,41.3,32.6,29.83,North,352,0.0,0.0,71,0.00,,OVC025,0.00,VWS V14.01,2013-12-01 21:22:00,
2013-12-01 16:27:00,41.3,32.3,29.83,NNE,18,0.0,0.0,70,0.00,,OVC025,0.00,VWS V14.01,2013-12-01 21:27:00,
2013-12-01 16:32:00,41.2,32.5,29.83,NNW,342,0.0,0.0,71,0.00,,OVC025,0.00,VWS V14.01,2013-12-01 21:32:00,
2013-12-01 16:37:00,41.2,32.5,29.83,North,10,0.0,0.0,71,0.00,,OVC025,0.00,VWS V14.01,2013-12-01 21:37:00,
2013-12-01 16:47:00,41.1,32.1,29.84,North,0,0.0,0.0,70,0.00,,OVC025,0.00,VWS V14.01,2013-12-01 21:47:00,
2013-12-01 16:52:00,41.1,32.1,29.84,NNE,14,0.0,0.0,70,0.00,,OVC025,0.00,VWS V14.01,2013-12-01 21:52:00,
2013-12-01 16:58:00,40.9,31.9,29.84,NNE,20,0.0,0.0,70,0.00,,OVC025,0.00,VWS V14.01,2013-12-01 21:58:00,
2013-12-01 17:07:00,40.6,31.6,29.83,NNE,28,0.0,0.0,70,0.00,,FEW031,0.00,VWS V14.01,2013-12-01 22:07:00,
2013-12-01 17:12:00,40.5,31.9,29.83,NNE,21,0.0,0.0,71,0.00,,FEW031,0.00,VWS V14.01,2013-12-01 22:12:00,
2013-12-01 17:17:00,40.2,31.6,29.84,NNE,20,0.0,0.0,71,0.00,,FEW031,0.00,VWS V14.01,2013-12-01 22:17:00,
2013-12-01 17:27:00,39.9,31.6,29.84,NNE,17,0.0,0.0,72,0.00,,FEW031,0.00,VWS V14.01,2013-12-01 22:27:00,
2013-12-01 17:32:00,39.6,31.3,29.85,NNE,13,0.0,0.0,72,0.00,,FEW031,0.00,VWS V14.01,2013-12-01 22:32:00,
2013-12-01 17:37:00,39.6,31.3,29.85,NNE,25,0.0,0.0,72,0.00,,FEW031,0.00,VWS V14.01,2013-12-01 22:37:00,
2013-12-01 17:47:00,39.2,31.0,29.84,NE,34,0.0,0.0,72,0.00,,FEW031,0.00,VWS V14.01,2013-12-01 22:47:00,
2013-12-01 17:52:00,38.8,30.6,29.84,NE,41,0.0,0.0,72,0.00,,FEW031,0.00,VWS V14.01,2013-12-01 22:52:00,
2013-12-01 17:58:00,38.3,30.4,29.84,NE,40,0.0,0.0,73,0.00,,FEW031,0.00,VWS V14.01,2013-12-01 22:58:00,
2013-12-01 18:07:00,37.6,29.7,29.85,NE,40,0.0,0.0,73,0.00,,OVC033,0.00,VWS V14.01,2013-12-01 23:07:00,
2013-12-01 18:12:00,37.5,30.0,29.85,NE,40,0.0,0.0,74,0.00,,OVC033,0.00,VWS V14.01,2013-12-01 23:12:00,
2013-12-01 18:18:00,37.3,30.1,29.85,NE,40,0.0,0.0,75,0.00,,OVC033,0.00,VWS V14.01,2013-12-01 23:18:00,
2013-12-01 18:28:00,37.3,30.1,29.85,NE,40,0.0,0.0,75,0.00,,OVC033,0.00,VWS V14.01,2013-12-01 23:28:00,
2013-12-01 18:37:00,37.2,30.0,29.86,NE,40,0.0,0.0,75,0.00,,OVC033,0.00,VWS V14.01,2013-12-01 23:37:00,
2013-12-01 18:42:00,36.9,29.7,29.86,NE,40,0.0,0.0,75,0.00,,OVC033,0.00,VWS V14.01,2013-12-01 23:42:00,
2013-12-01 18:47:00,36.8,29.6,29.86,NE,40,0.0,0.0,75,0.00,,OVC033,0.00,VWS V14.01,2013-12-01 23:47:00,
2013-12-01 18:57:00,36.9,29.4,29.86,NE,40,0.0,0.0,74,0.00,,OVC033,0.00,VWS V14.01,2013-12-01 23:57:00,
2013-12-01 19:02:00,36.9,29.1,29.85,NE,40,0.0,0.0,73,0.00,,FEW033,0.00,VWS V14.01,2013-12-02 00:02:00,
2013-12-01 19:12:00,37.2,29.0,29.85,NE,40,0.0,0.0,72,0.00,,FEW033,0.00,VWS V14.01,2013-12-02 00:12:00,
2013-12-01 19:18:00,37.2,28.7,29.86,NE,40,0.0,0.0,71,0.00,,FEW033,0.00,VWS V14.01,2013-12-02 00:18:00,
2013-12-01 19:27:00,37.0,28.5,29.86,NE,40,0.0,0.0,71,0.00,,FEW033,0.00,VWS V14.01,2013-12-02 00:27:00,
2013-12-01 19:32:00,36.9,28.4,29.86,NE,40,0.0,0.0,71,0.00,,FEW033,0.00,VWS V14.01,2013-12-02 00:32:00,
2013-12-01 19:37:00,36.9,28.4,29.86,NE,40,0.0,0.0,71,0.00,,FEW033,0.00,VWS V14.01,2013-12-02 00:37:00,
2013-12-01 19:42:00,36.8,28.3,29.86,NE,40,0.0,0.0,71,0.00,,FEW033,0.00,VWS V14.01,2013-12-02 00:42:00,
2013-12-01 19:47:00,36.6,28.4,29.85,NE,40,0.0,0.0,72,0.00,,FEW033,0.00,VWS V14.01,2013-12-02 00:47:00,
2013-12-01 19:52:00,36.5,28.4,29.85,NE,40,0.0,0.0,72,0.00,,FEW033,0.00,VWS V14.01,2013-12-02 00:52:00,
2013-12-01 19:57:00,36.3,28.1,29.85,NE,40,0.0,0.0,72,0.00,,FEW033,0.00,VWS V14.01,2013-12-02 00:57:00,
2013-12-01 20:02:00,36.3,28.1,29.85,NE,40,0.0,0.0,72,0.00,,CLR,0.00,VWS V14.01,2013-12-02 01:02:00,
2013-12-01 20:07:00,36.3,28.1,29.85,NE,40,0.0,0.0,72,0.00,,CLR,0.00,VWS V14.01,2013-12-02 01:07:00,
2013-12-01 20:13:00,36.2,28.1,29.85,NE,40,0.0,0.0,72,0.00,,CLR,0.00,VWS V14.01,2013-12-02 01:13:00,
2013-12-01 20:22:00,36.0,27.9,29.85,NE,40,0.0,0.0,72,0.00,,CLR,0.00,VWS V14.01,2013-12-02 01:22:00,
2013-12-01 20:27:00,35.8,27.7,29.85,NE,40,0.0,0.0,72,0.00,,CLR,0.00,VWS V14.01,2013-12-02 01:27:00,
2013-12-01 20:33:00,35.5,27.7,29.84,NE,40,0.0,0.0,73,0.00,,CLR,0.00,VWS V14.01,2013-12-02 01:33:00,
2013-12-01 20:42:00,34.7,27.3,29.84,NE,40,0.0,0.0,74,0.00,,CLR,0.00,VWS V14.01,2013-12-02 01:42:00,
2013-12-01 20:48:00,34.6,27.2,29.85,NE,40,0.0,0.0,74,0.00,,CLR,0.00,VWS V14.01,2013-12-02 01:48:00,
2013-12-01 20:57:00,34.1,27.0,29.85,NE,40,0.0,0.0,75,0.00,,CLR,0.00,VWS V14.01,2013-12-02 01:57:00,
2013-12-01 21:02:00,33.8,27.0,29.85,NE,40,0.0,0.0,76,0.00,,SCT095,0.00,VWS V14.01,2013-12-02 02:02:00,
2013-12-01 21:12:00,33.5,26.8,29.85,NE,40,0.0,0.0,76,0.00,,SCT095,0.00,VWS V14.01,2013-12-02 02:12:00,
2013-12-01 21:17:00,32.9,26.5,29.84,NE,40,0.0,0.0,77,0.00,,SCT095,0.00,VWS V14.01,2013-12-02 02:17:00,
2013-12-01 21:27:00,31.9,25.8,29.84,NE,40,0.0,0.0,78,0.00,,SCT095,0.00,VWS V14.01,2013-12-02 02:27:00,
2013-12-01 21:32:00,31.3,25.6,29.84,NE,40,0.0,0.0,79,0.00,,SCT095,0.00,VWS V14.01,2013-12-02 02:32:00,
2013-12-01 21:37:00,30.7,25.0,29.84,NE,40,0.0,0.0,79,0.00,,SCT095,0.00,VWS V14.01,2013-12-02 02:37:00,
2013-12-01 21:47:00,30.1,25.0,29.84,NE,40,0.0,0.0,81,0.00,,SCT095,0.00,VWS V14.01,2013-12-02 02:47:00,
2013-12-01 21:52:00,30.1,25.3,29.84,NE,40,0.0,0.0,82,0.00,,SCT095,0.00,VWS V14.01,2013-12-02 02:52:00,
2013-12-01 21:57:00,29.8,25.0,29.84,NE,40,0.0,0.0,82,0.00,,SCT095,0.00,VWS V14.01,2013-12-02 02:57:00,
2013-12-01 22:02:00,29.4,24.9,29.84,NE,40,0.0,0.0,83,0.00,,CLR,0.00,VWS V14.01,2013-12-02 03:02:00,
2013-12-01 22:07:00,29.3,25.1,29.84,NE,40,0.0,0.0,84,0.00,,CLR,0.00,VWS V14.01,2013-12-02 03:07:00,
2013-12-01 22:12:00,29.4,25.5,29.84,NE,40,0.0,0.0,85,0.00,,CLR,0.00,VWS V14.01,2013-12-02 03:12:00,
2013-12-01 22:17:00,29.4,25.5,29.84,NE,40,0.0,0.0,85,0.00,,CLR,0.00,VWS V14.01,2013-12-02 03:17:00,
2013-12-01 22:22:00,29.4,25.5,29.84,NE,40,0.0,0.0,85,0.00,,CLR,0.00,VWS V14.01,2013-12-02 03:22:00,
2013-12-01 22:27:00,29.4,25.7,29.84,NE,40,0.0,0.0,86,0.00,,CLR,0.00,VWS V14.01,2013-12-02 03:27:00,
2013-12-01 22:33:00,29.4,25.7,29.84,NE,40,0.0,0.0,86,0.00,,CLR,0.00,VWS V14.01,2013-12-02 03:33:00,
2013-12-01 22:42:00,29.4,25.7,29.84,NE,40,0.0,0.0,86,0.00,,CLR,0.00,VWS V14.01,2013-12-02 03:42:00,
2013-12-01 22:47:00,29.3,25.6,29.83,NE,40,0.0,0.0,86,0.00,,CLR,0.00,VWS V14.01,2013-12-02 03:47:00,
2013-12-01 22:53:00,29.1,25.4,29.83,NE,40,0.0,0.0,86,0.00,,CLR,0.00,VWS V14.01,2013-12-02 03:53:00,
2013-12-01 22:58:00,29.0,25.4,29.83,NE,40,0.0,0.0,86,0.00,,CLR,0.00,VWS V14.01,2013-12-02 03:58:00,
2013-12-01 23:03:00,28.8,25.1,29.83,NE,40,0.0,0.0,86,0.00,,CLR,0.00,VWS V14.01,2013-12-02 04:03:00,
2013-12-01 23:13:00,28.8,25.4,29.83,NE,40,0.0,0.0,87,0.00,,CLR,0.00,VWS V14.01,2013-12-02 04:13:00,
2013-12-01 23:22:00,28.8,25.4,29.83,NE,40,0.0,0.0,87,0.00,,CLR,0.00,VWS V14.01,2013-12-02 04:22:00,
2013-12-01 23:28:00,28.8,25.4,29.83,NE,40,0.0,0.0,87,0.00,,CLR,0.00,VWS V14.01,2013-12-02 04:28:00,
2013-12-01 23:37:00,29.1,26.0,29.82,NE,40,0.0,0.0,88,0.00,,CLR,0.00,VWS V14.01,2013-12-02 04:37:00,
2013-12-01 23:42:00,29.3,25.9,29.82,NE,40,0.0,0.0,87,0.00,,CLR,0.00,VWS V14.01,2013-12-02 04:42:00,
2013-12-01 23:47:00,28.8,25.4,29.82,NE,40,0.0,0.0,87,0.00,,CLR,0.00,VWS V14.01,2013-12-02 04:47:00,
2013-12-01 23:52:00,28.4,25.0,29.82,NE,40,0.0,0.0,87,0.00,,CLR,0.00,VWS V14.01,2013-12-02 04:52:00,